Location: Biltmore Gardens
(41.6070°N, 83.4666°W)
Time: 05:38:04
(UTC+00:00)

A-11 Canister half - Pass Details

Date: 21 April 2021
Orbit: 1526 x 1683 km, 47.3° (Epoch: 11 May)

Event Time Altitude Azimuth Distance (km) Brightness Sun altitude
Rises 03:30:12 0° 297° (WNW) 4,940 12.6 -29.5°
Reaches altitude 10° 03:33:33 10° 292° (WNW) 3,946 11.8 -29.9°
Maximum altitude 03:42:57 45° 224° (SW) 2,144 9.5 -30.8°
Enters shadow 03:44:27 43° 202° (SSW) 2,203 9.5 -31.0°
